User: anonymous   Login
Location: Unspecified
(0.0000°N, 0.0000°E)
Time: 18:45:23
(UTC+00:00)
Language:

Picosat 9 - Orbit

View from above orbital plane
View from above orbital plane
View from above satellite
View from above satellite

Ground track
Ground track

The orbit data is extracted from the following two-line orbital elements,

1 26930U 01043B   17145.37155867 -.00000063 +00000-0 +79069-5 0  9994
2 26930 067.0005 108.6314 0009614 297.0727 062.9393 14.30643175817346
Epoch (UTC): 25 May 2017 08:55:02
Eccentricity: 0.0009614
inclination: 67.0005°
perigee height: 782 km
apogee height: 796 km
right ascension of ascending node: 108.6314°
argument of perigee: 297.0727°
revolutions per day: 14.30643175
mean anomaly at epoch: 62.9393°
orbit number at epoch: 81734

The dashed part of the orbit path shows where the satellite is in the earth's shadow,  

DLR